Location: Canet
(43.3261°N, 5.3723°E)
Time: 18:41:24
(UTC+00:00)

Cosmos 2344 - Pass Details

Date: 24 January 2021
Orbit: 1243 x 2999 km, 63.3° (Epoch: 07 March)

Event Time Altitude Azimuth Distance (km) Brightness Sun altitude
Rises 18:01:44 0° 322° (NW) 4,525 6.8 -14.9°
Reaches altitude 10° 18:04:26 10° 327° (NNW) 3,684 6.3 -15.4°
Maximum altitude 18:13:33 58° 46° (NE) 2,115 4.4 -17.0°
Drops below altitude 10° 18:26:10 10° 124° (SE) 5,006 6.2 -19.2°
Sets 18:30:29 0° 129° (SE) 6,246 6.8 -20.0°
